Temperature
16 16 16 16 16 16 16 16 16 16 16 16 16 16 16 15 15 15 15 15 15 15 15 15 15 15 15 15 15 15 15 15 15 15 15 15 15 15 15 15 15 15 15
16 16 16 16 16 16 16 16 16 16 16 16 16 15 15 15 15 15 15 15 15 15 15 15 15 15 15 15 15 15 15 15 15 15 15 15 15 15 15 15 15 15 15
16 16 16 16 16 16 16 16 16 16 16 16 15 15 15 15 15 15 15 15 15 15 15 14 14 14 14 15 15 15 15 15 15 15 15 15 15 15 15 15 15 15 15
16 16 16 16 16 16 16 16 16 16 16 16 15 15 15 15 15 15 15 15 15 15 15 14 14 14 14 14 14 14 15 15 15 15 14 14 14 14 14 14 14 14 14
16 16 16 16 16 16 16 16 16 16 15 15 15 15 15 15 15 15 15 15 15 15 15 15 14 14 14 14 14 14 14 14 14 14 14 14 14 14 14 14 14 14 14
16 16 16 16 16 16 16 16 15 15 15 15 15 15 15 15 15 15 15 15 15 15 15 15 14 14 14 14 14 14 14 14 14 14 14 14 14 14 14 14 13 14 14
16 16 16 16 16 16 16 15 15 15 15 15 15 15 14 14 14 14 14 14 14 14 14 14 14 14 14 14 14 14 13 13 13 14 14 14 14 13 13 13 13 13 13
16 16 16 16 16 15 15 15 15 15 15 15 15 15 14 14 14 14 14 14 14 14 14 14 14 14 14 14 14 13 13 13 13 13 13 13 13 13 13 13 13 13 13
16 16 16 16 15 15 15 15 15 15 15 15 15 15 14 14 14 14 14 14 14 14 14 14 14 14 14 14 14 13 13 13 13 13 13 13 13 13 13 13 13 13 13
16 16 16 16 15 15 15 15 15 15 15 15 15 14 14 14 14 13 13 13 13 13 13 13 13 13 13 13 13 13 13 13 13 13 13 13 13 12 12 12 12 12 12
16 15 15 15 15 15 15 15 15 15 14 14 14 14 14 14 14 14 13 13 13 13 13 13 13 13 13 13 13 13 13 13 13 13 12 12 12 12 12 12 12 12 12
16 15 15 15 15 15 15 15 15 14 14 14 14 14 14 14 14 14 13 13 13 12 12 13 13 13 13 13 12 12 12 12 12 12 12 12 12 12 12 11 11 11 11
15 15 15 15 15 15 15 14 14 14 14 14 14 14 14 14 14 14 13 13 12 12 12 12 12 12 12 12 12 12 12 12 12 12 12 12 12 11 11 11 11 11 11
15 15 15 15 15 15 14 14 14 14 14 14 14 14 14 13 13 13 13 13 12 12 12 12 12 12 12 12 12 12 12 12 12 11 11 11 11 11 11 11 11 11 11
15 15 15 15 14 14 14 14 14 14 14 14 14 13 13 13 13 13 13 13 13 12 12 11 12 11 11 11 11 11 11 11 11 11 11 11 11 11 11 11 11 11 11
15 15 15 14 14 14 14 14 14 14 13 13 13 13 13 13 13 13 13 12 12 12 12 11 11 11 11 11 11 11 11 11 11 11 11 11 11 10 10 10 10 10 10
14 14 14 14 14 14 14 14 13 13 13 13 13 13 13 13 12 12 12 12 12 12 12 11 11 11 11 11 11 11 11 11 10 10 10 10 10 10 10 10 10 10 10
14 14 14 14 14 14 13 13 13 13 13 13 13 13 12 12 12 12 12 12 11 11 11 11 11 11 11 10 10 10 10 10 10 10 10 10 10 10 9 9 9 9 9
14 14 14 14 14 13 13 13 13 13 12 12 12 12 12 12 12 12 11 11 11 11 11 11 11 10 10 10 10 10 10 10 10 10 10 9 9 9 9 9 9 9 9
14 14 14 13 13 13 13 13 12 12 12 12 12 12 12 12 11 11 11 11 11 11 11 10 10 10 10 10 10 10 10 9 9 9 9 9 9 9 9 9 8 8 8
14 14 13 13 13 13 13 12 12 12 12 12 12 11 11 11 11 11 11 11 11 10 10 10 10 10 9 9 9 9 9 9 9 9 9 9 9 8 8 8 8 8 8
14 13 13 13 13 12 12 12 12 12 11 11 11 11 11 11 11 11 11 10 10 10 10 10 10 9 9 9 9 9 8 8 8 8 8 8 8 8 8 8 8 7 7
13 13 13 13 12 12 12 12 11 11 11 11 11 11 11 11 11 10 10 10 10 10 10 10 9 9 9 9 9 8 8 8 8 8 8 8 8 8 8 7 7 7 7
13 13 13 12 12 12 12 12 11 11 11 11 11 11 10 10 10 10 10 10 10 10 10 9 9 9 9 9 8 8 8 8 8 8 7 7 8 8 7 7 7 7 6
13 13 12 12 12 12 12 11 11 11 11 11 11 10 10 10 10 10 10 10 10 10 10 9 9 9 9 8 8 8 8 7 8 8 7 7 7 7 7 7 7 6 6
12 12 12 12 12 12 11 11 11 11 10 10 10 10 10 10 10 10 10 10 10 10 9 9 9 9 8 8 8 8 7 7 7 7 7 7 6 6 6 6 6 6 6
Wind_Speed
2 2 2 2 2 3 3 3 4 5 5 6 7 8 7 7 7 7 8 11 11 10 10 10 11 11 12 12 12 11 11 11 11 12 11 11 11 10 10 10 9 9 8
4 3 2 3 3 4 4 5 5 5 4 5 5 6 6 6 7 7 7 8 10 11 11 10 10 11 11 11 11 10 10 10 11 11 11 11 10 10 9 9 9 9 9
6 5 3 3 3 5 6 6 6 6 5 5 4 4 4 5 6 6 6 6 7 9 10 10 10 10 10 10 10 10 10 10 10 10 10 10 10 9 9 8 8 8 8
7 6 4 3 4 6 6 4 4 4 4 4 3 3 3 4 4 5 5 5 5 6 7 9 10 9 9 9 10 9 9 10 10 10 10 9 9 9 9 8 8 8 8
7 6 4 3 6 5 4 3 3 3 3 3 3 3 3 2 3 5 4 4 5 5 5 6 7 8 8 9 9 9 9 9 9 9 9 9 9 8 8 8 8 8 8
6 6 4 4 5 4 3 3 3 3 2 2 4 4 3 2 2 3 3 4 5 5 5 5 5 5 7 7 7 8 8 8 8 8 8 8 7 7 7 7 7 7 7
6 5 4 4 4 3 3 3 3 3 2 3 4 3 4 4 3 2 3 4 4 4 5 4 4 4 4 6 7 6 6 7 7 7 6 6 6 6 6 6 6 7 7
5 5 4 3 3 3 3 3 3 2 1 2 3 3 2 4 4 3 2 2 3 4 4 4 4 4 4 4 5 6 6 6 6 6 6 6 5 5 5 6 6 6 6
5 5 5 4 3 3 3 3 3 4 2 0 1 3 3 2 1 3 3 2 2 2 3 4 5 5 5 4 4 5 5 5 5 6 6 6 5 5 5 5 6 6 6
5 5 5 5 3 3 3 3 3 3 3 1 0 1 2 4 3 0 3 3 2 2 2 3 4 4 5 5 5 6 6 6 6 6 6 7 7 7 6 6 5 5 6
4 4 5 4 3 3 2 2 2 2 2 3 2 1 2 2 2 3 1 2 2 2 1 2 3 3 3 3 4 4 5 6 6 7 7 7 8 7 7 6 5 5 4
2 2 4 4 3 3 2 2 2 3 2 3 2 2 2 2 2 3 2 1 1 1 1 1 2 2 3 3 2 3 4 5 5 6 7 7 7 7 6 6 5 5 4
1 1 2 2 2 2 3 3 3 2 2 3 2 2 2 2 2 3 3 2 1 1 1 1 1 1 2 3 2 2 3 3 4 4 5 5 6 6 6 6 6 5 5
2 2 3 3 3 3 3 3 2 2 2 2 3 2 2 1 2 3 3 4 2 1 1 2 1 0 1 2 1 2 2 2 2 2 3 4 4 5 5 5 6 6 6
2 3 3 3 3 3 4 4 3 2 2 2 2 2 2 1 1 1 2 3 4 2 1 2 1 1 1 2 2 2 1 2 1 1 2 2 3 4 4 5 5 5 6
2 3 3 2 3 3 4 4 3 2 3 2 2 2 1 1 1 1 2 1 2 4 2 2 2 2 1 1 2 1 1 1 1 1 1 1 2 2 3 4 5 6 5
3 3 3 3 3 3 3 4 3 3 3 2 2 3 2 1 1 1 2 2 2 2 2 1 1 0 0 0 0 0 1 1 1 1 1 1 1 2 2 3 4 5 5
3 3 3 3 3 3 3 4 3 2 3 2 1 2 1 2 2 1 2 2 2 2 3 2 1 1 0 1 0 0 1 1 2 2 1 1 1 2 2 2 2 3 4
3 3 3 3 3 3 3 3 3 2 2 2 2 2 2 3 2 1 2 2 1 1 2 2 1 0 1 0 1 1 1 2 2 2 2 2 2 2 2 2 1 1 2
4 4 3 3 3 3 3 3 3 2 2 2 2 2 2 3 3 3 2 2 2 2 2 2 1 0 1 1 1 0 1 2 2 2 2 2 3 3 3 2 2 1 1
4 4 4 3 3 3 3 3 3 3 2 1 1 1 2 3 3 3 3 3 3 2 2 2 1 0 1 0 1 1 1 1 2 1 1 2 2 3 4 4 3 3 2
3 3 4 3 3 2 3 5 4 3 3 2 2 1 1 2 2 2 3 5 5 4 4 3 2 2 3 3 1 1 1 0 2 2 0 2 1 2 4 4 4 4 3
3 3 4 4 3 3 4 5 5 4 3 3 3 2 2 2 1 2 2 3 4 5 6 5 4 5 4 5 3 2 2 2 3 2 1 2 2 2 4 5 5 4 4
3 3 4 4 3 3 4 5 5 4 3 3 4 4 4 3 3 3 2 2 2 3 5 4 5 6 5 5 5 4 4 2 1 2 1 2 2 2 4 4 4 4 4
3 3 3 4 4 4 5 5 5 3 2 3 3 3 3 4 4 4 3 3 2 3 3 4 4 4 4 4 4 3 2 1 1 2 1 2 2 2 2 3 4 5 5
3 3 3 4 5 5 6 6 6 3 3 2 2 3 4 5 5 4 4 4 4 4 3 1 1 2 2 3 3 4 4 3 2 2 2 1 1 0 2 2 3 4 5
Wind_Direction
135 135 132 123 119 105 98 90 87 86 92 96 104 106 100 97 86 80 75 74 73 74 77 79 81 80 80 79 79 79 79 76 79 82 81 80 79 79 81 79 77 76 77
138 132 116 102 99 103 106 99 92 87 86 92 90 99 106 106 97 88 81 73 70 70 71 75 80 81 80 80 80 81 79 74 76 77 77 77 77 78 77 77 75 72 70
133 129 115 100 98 99 97 92 82 79 80 81 77 84 98 105 103 95 88 77 70 68 69 71 75 78 80 79 80 83 81 79 81 80 78 76 74 75 73 70 70 69 66
128 123 115 105 106 102 96 89 80 77 73 73 68 69 82 95 99 102 97 88 82 76 70 70 70 73 75 76 77 79 80 82 83 82 79 75 72 69 68 66 65 64 62
129 127 118 113 115 103 89 99 87 96 94 79 69 66 61 79 95 100 99 98 96 88 81 74 69 68 69 74 76 76 77 80 80 78 76 74 71 68 65 64 63 62 61
123 125 121 113 114 101 87 91 97 86 97 98 83 63 43 43 76 87 105 100 101 98 93 83 71 59 59 68 76 78 78 77 78 76 72 69 66 64 63 61 61 62 60
122 120 118 114 117 114 123 118 107 95 82 93 83 49 21 28 48 53 79 92 92 98 97 90 83 74 61 59 68 74 76 75 72 70 68 66 64 64 64 60 57 57 56
123 127 123 126 124 120 111 105 110 109 101 99 113 99 32 8 9 23 36 75 82 84 86 88 80 76 74 73 68 68 68 72 70 65 60 57 56 60 65 63 57 55 52
111 122 127 125 130 133 138 138 136 139 152 114 115 136 141 197 322 354 24 45 54 59 68 72 69 63 67 70 67 59 59 61 63 57 51 48 52 58 64 65 58 53 48
106 117 122 125 125 126 135 153 150 148 148 173 5 80 149 153 148 354 349 10 38 52 47 76 71 68 68 66 67 62 60 54 55 53 49 48 51 55 57 55 51 48 48
93 109 115 117 120 124 132 136 130 133 144 157 164 144 93 83 108 140 205 337 7 8 38 70 82 76 80 83 86 78 69 58 51 50 48 49 50 50 49 46 42 39 38
67 88 110 109 121 129 126 127 129 130 129 125 127 131 142 141 155 146 167 200 251 309 359 42 74 84 92 93 100 93 89 70 57 53 51 48 46 44 40 38 36 34 28
100 113 108 112 118 129 126 117 115 116 121 121 130 136 140 159 160 149 148 166 191 291 347 351 346 86 104 108 102 101 92 79 60 56 53 46 39 34 31 31 31 27 21
176 155 126 117 113 113 109 109 106 121 118 123 127 132 125 140 139 149 156 153 144 342 351 297 316 345 111 125 128 113 83 88 85 67 59 46 38 34 29 24 22 19 17
162 143 127 121 114 108 108 109 105 112 111 106 124 124 127 136 127 133 144 155 154 169 256 267 277 289 192 147 139 120 97 82 82 90 62 44 35 31 26 22 18 15 18
152 139 131 121 108 102 104 104 105 106 102 103 119 114 104 107 100 106 128 120 134 159 196 240 235 233 202 191 208 174 161 68 54 34 349 13 18 28 28 25 24 25 28
159 153 153 138 126 121 111 109 112 110 109 94 96 118 131 130 111 102 102 96 98 124 157 259 281 279 145 138 95 248 299 321 329 316 321 353 346 3 18 22 24 31 37
157 159 151 144 140 134 132 135 138 124 129 132 140 129 155 140 119 124 118 117 128 140 150 182 288 326 261 201 160 232 302 297 287 305 309 342 349 0 0 2 14 27 34
158 152 150 152 151 150 150 155 157 154 151 162 168 161 184 152 153 155 141 136 146 127 127 149 213 298 318 5 32 347 344 327 310 311 314 313 309 324 340 343 345 360 18
156 157 157 157 155 157 159 160 161 154 155 169 175 178 186 177 187 183 170 168 148 124 115 128 169 249 269 308 71 43 336 340 322 321 319 304 302 302 299 301 306 301 303
169 164 149 143 146 157 169 160 158 158 160 168 180 196 200 184 184 186 181 176 158 148 140 147 182 192 273 264 244 235 244 314 318 323 337 313 303 299 301 293 282 283 288
162 152 152 160 168 189 177 169 164 165 165 165 183 215 218 191 204 202 191 171 161 164 174 177 200 212 235 229 220 196 177 51 297 297 355 296 292 279 281 281 276 273 278
166 169 175 176 186 199 181 172 167 166 174 186 195 209 234 234 198 203 199 188 194 190 181 180 194 215 218 215 192 193 201 206 237 250 161 273 293 278 282 287 281 271 272
177 186 192 187 188 209 189 175 166 164 174 196 210 211 213 235 227 200 188 191 215 227 212 197 200 215 218 205 195 194 194 204 264 277 177 235 272 278 295 294 277 270 276
191 201 196 193 199 219 201 184 162 162 182 218 230 223 212 221 237 202 177 192 223 263 246 220 221 225 234 225 188 135 133 124 284 281 223 192 251 293 297 286 282 280 279
204 198 211 211 207 217 210 192 173 173 195 229 250 244 228 229 240 210 190 190 215 241 227 225 250 279 259 247 220 187 184 185 209 255 243 184 220 287 307 293 289 296 289
Height
1550 1550 1551 1551 1551 1552 1551 1551 1551 1551 1551 1550 1550 1550 1549 1549 1548 1547 1546 1545 1545 1544 1543 1542 1542 1541 1540 1539 1539 1538 1538 1539 1539 1540 1540 1541 1541 1541 1541 1541 1541 1541 1541
1551 1551 1552 1552 1552 1552 1553 1553 1552 1552 1552 1552 1551 1551 1551 1550 1550 1549 1548 1547 1547 1546 1545 1544 1543 1543 1542 1541 1541 1540 1540 1540 1540 1541 1541 1541 1541 1541 1541 1541 1541 1541 1540
1552 1552 1552 1553 1553 1553 1553 1553 1553 1553 1553 1553 1553 1552 1552 1552 1551 1551 1550 1549 1548 1547 1547 1546 1545 1545 1544 1543 1543 1542 1542 1542 1542 1542 1542 1542 1541 1541 1541 1541 1541 1540 1540
1552 1553 1553 1553 1554 1554 1554 1554 1554 1554 1554 1554 1554 1554 1553 1553 1553 1552 1552 1551 1550 1549 1548 1548 1547 1546 1546 1545 1545 1544 1543 1543 1543 1543 1542 1542 1541 1541 1541 1541 1540 1540 1540
1553 1553 1553 1554 1554 1555 1555 1555 1555 1555 1555 1555 1555 1555 1555 1554 1554 1554 1553 1553 1552 1551 1550 1549 1549 1548 1547 1547 1546 1546 1545 1544 1544 1543 1542 1542 1541 1541 1541 1540 1540 1540 1540
1553 1553 1553 1554 1554 1555 1555 1555 1555 1555 1555 1555 1555 1555 1556 1555 1555 1555 1554 1554 1553 1552 1551 1551 1550 1549 1549 1548 1547 1547 1546 1545 1544 1544 1543 1542 1541 1540 1540 1540 1540 1540 1539
1553 1553 1553 1554 1554 1555 1555 1555 1555 1556 1556 1556 1556 1556 1556 1556 1556 1556 1555 1555 1554 1553 1553 1552 1551 1550 1550 1549 1548 1548 1547 1546 1545 1544 1542 1541 1540 1539 1539 1539 1539 1539 1539
1552 1552 1553 1554 1554 1554 1555 1555 1555 1555 1556 1556 1556 1556 1556 1558 1557 1557 1556 1555 1555 1554 1554 1553 1552 1551 1551 1550 1549 1548 1547 1546 1545 1544 1542 1540 1538 1537 1537 1537 1538 1538 1538
1551 1552 1552 1553 1553 1554 1554 1554 1554 1555 1555 1556 1556 1556 1556 1556 1557 1557 1556 1556 1556 1555 1554 1553 1553 1552 1551 1550 1550 1549 1548 1547 1545 1544 1542 1539 1537 1535 1535 1536 1537 1538 1538
1551 1551 1552 1552 1552 1553 1553 1553 1554 1554 1554 1555 1555 1555 1556 1555 1556 1556 1557 1556 1556 1555 1554 1554 1553 1552 1552 1551 1550 1549 1548 1547 1545 1544 1542 1539 1537 1536 1535 1536 1537 1538 1538
1551 1551 1551 1551 1551 1552 1552 1552 1553 1553 1553 1554 1554 1554 1554 1554 1555 1555 1555 1556 1556 1555 1554 1554 1553 1552 1552 1551 1550 1549 1548 1547 1545 1544 1542 1541 1539 1537 1537 1537 1537 1537 1537
1550 1550 1550 1550 1550 1551 1551 1551 1551 1552 1552 1552 1553 1553 1553 1553 1553 1554 1554 1554 1554 1555 1554 1554 1553 1552 1551 1551 1550 1549 1548 1547 1545 1544 1542 1541 1540 1539 1538 1538 1537 1537 1536
1549 1549 1549 1549 1549 1550 1550 1550 1550 1551 1551 1551 1551 1552 1552 1552 1552 1552 1553 1553 1553 1553 1553 1553 1552 1552 1551 1550 1549 1548 1547 1546 1545 1544 1542 1541 1540 1539 1538 1537 1537 1536 1535
1548 1548 1548 1549 1549 1549 1549 1549 1549 1549 1550 1550 1550 1550 1550 1550 1551 1551 1551 1551 1551 1552 1552 1552 1551 1551 1550 1550 1549 1548 1547 1546 1545 1543 1542 1541 1540 1539 1538 1537 1536 1535 1533
1547 1548 1548 1548 1548 1548 1548 1548 1548 1548 1548 1548 1548 1549 1549 1549 1549 1549 1550 1550 1551 1550 1550 1550 1550 1550 1549 1549 1548 1547 1546 1545 1544 1543 1542 1541 1540 1539 1538 1536 1535 1534 1532
1546 1547 1547 1547 1547 1547 1547 1547 1547 1547 1547 1547 1547 1547 1547 1547 1547 1548 1548 1548 1549 1549 1548 1548 1548 1548 1548 1547 1547 1546 1545 1544 1543 1542 1541 1540 1539 1538 1537 1536 1534 1532 1530
1545 1545 1546 1546 1546 1546 1546 1546 1546 1546 1545 1545 1545 1545 1546 1546 1546 1546 1546 1547 1547 1547 1546 1547 1547 1546 1546 1545 1545 1544 1543 1543 1542 1541 1540 1539 1538 1537 1536 1535 1533 1531 1530
1544 1544 1544 1544 1544 1544 1544 1544 1544 1544 1544 1544 1544 1544 1544 1544 1545 1545 1545 1545 1545 1545 1545 1544 1545 1544 1544 1544 1543 1542 1542 1541 1540 1539 1538 1538 1537 1536 1535 1534 1532 1531 1529
1542 1542 1543 1543 1543 1543 1543 1543 1543 1543 1543 1543 1543 1543 1543 1543 1543 1543 1543 1543 1544 1544 1543 1543 1542 1542 1542 1542 1541 1540 1540 1539 1538 1537 1537 1536 1535 1534 1533 1532 1531 1530 1529
1540 1540 1541 1541 1541 1541 1541 1541 1541 1541 1541 1541 1541 1541 1541 1541 1541 1541 1541 1541 1542 1541 1541 1541 1541 1540 1540 1539 1538 1537 1537 1536 1536 1535 1534 1534 1533 1532 1531 1530 1529 1528 1527
1538 1538 1539 1539 1539 1539 1539 1539 1539 1539 1539 1539 1539 1540 1540 1540 1540 1539 1539 1539 1539 1539 1539 1539 1538 1538 1537 1537 1536 1535 1535 1534 1534 1533 1532 1531 1531 1530 1529 1528 1527 1526 1525
1536 1536 1536 1537 1537 1537 1537 1537 1537 1537 1537 1537 1537 1537 1537 1537 1537 1537 1537 1537 1537 1537 1537 1536 1536 1535 1535 1534 1534 1533 1533 1532 1531 1531 1530 1529 1528 1527 1526 1525 1525 1524 1523
1533 1533 1534 1534 1534 1534 1534 1534 1534 1534 1534 1535 1535 1534 1534 1534 1534 1534 1534 1534 1535 1535 1535 1534 1533 1533 1532 1532 1531 1531 1530 1530 1529 1528 1527 1526 1525 1524 1524 1523 1522 1521 1520
1530 1530 1531 1531 1531 1531 1531 1531 1532 1532 1532 1532 1532 1532 1531 1531 1531 1531 1531 1531 1531 1531 1531 1531 1531 1530 1530 1529 1529 1528 1527 1527 1526 1525 1525 1523 1522 1521 1520 1519 1519 1518 1517
1527 1527 1527 1528 1528 1528 1528 1528 1528 1528 1528 1528 1528 1528 1528 1528 1528 1528 1528 1528 1528 1528 1528 1528 1527 1527 1526 1526 1526 1525 1524 1523 1522 1522 1521 1520 1518 1517 1516 1516 1515 1515 1513
1524 1524 1524 1524 1524 1524 1525 1525 1525 1525 1525 1525 1525 1525 1525 1525 1525 1524 1524 1524 1524 1524 1524 1524 1524 1523 1523 1523 1522 1522 1521 1520 1519 1518 1518 1517 1515 1514 1513 1512 1512 1511 1510